AirNav   BOSE ProFlight Aviation Headset
 
 403 users online  

3G2 Grygla Municipal Airport-Mel Wilkens Field
Grygla, Minnesota, USA

GOING TO GRYGLA?


FAA INFORMATION EFFECTIVE 24 MAY 2018

Location

FAA Identifier: 3G2
Lat/Long: 48-17-38.7000N / 095-37-33.5000W
48-17.645000N / 095-37.558333W
48.2940833 / -95.6259722
(estimated)
Elevation: 1177 ft. / 359 m (estimated)
Variation: 04E (1995)
From city: 1 mile SW of GRYGLA, MN
Time zone: UTC -5 (UTC -6 during Standard Time)
Zip code: 56727

Airport Operations

Airport use: Open to the public
Activation date: 02/2000
Control tower: no
ARTCC: MINNEAPOLIS CENTER
FSS: PRINCETON FLIGHT SERVICE STATION
NOTAMs facility: PNM (NOTAM-D service available)
Attendance: UNATNDD
Wind indicator: lighted
Segmented circle: no
Lights: SS-SR
Beacon: white-green (lighted land airport)
Operates sunset to sunrise.

Airport Communications

CTAF: 122.9

Nearby radio navigation aids

VOR radial/distance  VOR name  Freq  Var
TVFr051/26.2THIEF RIVER FALLS VOR/DME108.4008E
ROXr170/33.8ROSEAU VOR/DME108.8005E

Airport Services

Parking: tiedowns
Airframe service: NONE
Powerplant service: NONE
Bottled oxygen: NONE
Bulk oxygen: NONE

Runway Information

Runway 17/35

Dimensions: 3437 x 92 ft. / 1048 x 28 m
Surface: turf, in good condition
Runway edge lights: low intensity
Runway edge markings: RY 17/35 MARKED WITH YELLOW CONES.
RUNWAY 17  RUNWAY 35
Latitude: 48-17.926333N48-17.363500N
Longitude: 095-37.598000W095-37.518833W
Traffic pattern: leftleft

Airport Ownership and Management from official FAA records

Ownership: Publicly-owned
Owner: CITY OF GRYGLA
219 W BELTRAMI ST., P.O. BOX 76
GRYGLA, MN 56727
Phone 218-294-6292
Manager: ROCKY HAGEN
219 W BELTRAMI STREET, P.O. BOX 76
GRYGLA, MN 56727
Phone 218-294-6728
CELL: 218-689-3271

Airport Operational Statistics

Aircraft operations: avg 33/month *
50% transient general aviation
50% local general aviation
* for 12-month period ending 31 May 2017

Additional Remarks

ULTRALIGHT TRAFFIC ON & INVOF ARPT.
DEER ON & INVOF ARPT.
AIRPORT NOT PLOWED WINTER MONTHS.

Instrument Procedures

There are no published instrument procedures at 3G2.

Some nearby airports with instrument procedures:

KTVF - Thief River Falls Regional Airport (26 nm SW)
KROX - Roseau Municipal Airport/Rudy Billberg Field (34 nm N)
KRRT - Warroad International Memorial Airport (40 nm N)
KFSE - Fosston Municipal Airport (42 nm S)
D37 - Warren Municipal Airport (44 nm W)
 
Loc | Ops | Rwys | IFR | FBO | Links
Com | Nav | Svcs | Stats | Notes

AirNav Hotels Sweepstakes
 
Area around 3G2 (Grygla Municipal Airport-Mel Wilkens Field)
 
Road maps at: MapQuest Bing Google
 
Aerial photo
No photo
 
Sectional chart

 
Airport distance calculator
Flying to Grygla Municipal Airport-Mel Wilkens Field? Find the distance to fly.

From to 3G2

Sunrise and sunset
Times for 21-Jun-2018
 Local
(UTC-5)
 Zulu
(UTC)
Morning civil twilight04:4109:41
Sunrise05:2210:22
Sunset21:2602:26
Evening civil twilight22:0803:08

Current date and time
Zulu (UTC)  21-Jun-2018 06:34:42
Local (UTC-5)  21-Jun-2018 01:34:42
 
METAR
KTVF 
26nm SW 
210556Z AUTO 30003KT 10SM CLR 18/14 A2993 RMK AO2 SLP134 T01830144 10267 20183 58001
KROX 
33nm N 
210616Z AUTO 00000KT 10SM CLR 18/15 A2993 RMK AO2
KRRT 
40nm N 
210615Z AUTO 00000KT 10SM CLR 17/15 A2993 RMK AO2
KFSE 
43nm S 
210615Z AUTO 36004KT 10SM CLR 17/13 A2993 RMK AO2
KVWU 
45nm E 
210615Z AUTO 00000KT 10SM CLR 17/14 A2992 RMK AO2
KCKN 
48nm SW 
210615Z AUTO 06003KT 10SM CLR 21/13 A2992 RMK AO2
KBDE 
48nm NE 
210553Z AUTO 00000KT 10SM CLR 15/13 A2992 RMK AO2 SLP131 T01500133 10278 20150 402940100 51002
TAF
KTVF 
26nm SW 
210520Z 2106/2206 VRB06KT P6SM SCT250
NOTAMs
Click for the latest NOTAMs
NOTAMs are issued by the DoD/FAA and will open in a separate window not controlled by AirNav.

 

 
 

Would you like to see your business listed on this page?

 If your business provides an interesting product or service to pilots, flight crews, aircraft, or users of the Grygla Municipal Airport-Mel Wilkens Field, you should consider listing it here.  To start the listing process, click on the button below
 
Add a business
 

Other Pages about Grygla Municipal Airport-Mel Wilkens Field

PDF page(s) from the Minnesota Airport Directory
 
Update a link
 
Copyright © AirNav, LLC. All rights reserved. Privacy Policy  Contact